Change the Weather History Date:

Monday, August 5, 2013

  Actual Average Record
Temperature  
Mean Temperature 85 °F -  
Max Temperature 90 °F 89 °F 95 °F (2000)
Min Temperature 80 °F 77 °F 78 °F (1997)
Cooling Degree Days 20    
Growing Degree Days 35 (Base 50)    
Moisture  
Dew Point 76 °F    
Average Humidity 76    
Maximum Humidity 89    
Minimum Humidity 56    
Precipitation  
Precipitation 0.00 in 0.05 in - ()
Sea Level Pressure  
Sea Level Pressure 29.93 in    
Wind  
Wind Speed 8 mph ()    
Max Wind Speed 14 mph    
Max Gust Speed -    
Visibility 7.0 miles    
Events      
Averages and records for this station are not official NWS values.
T = Trace of Precipitation, MM = Missing Value Source: Averaged Metar Reports

Daily Weather History Graph

Daily Weather History Graph

Search for Another Location

Airport or City:

Trip Planner

Search our weather history database for the weather conditions in past years. The results will help you decide how hot, cold, wet, or windy it might be!

Date:

Astronomy

Aug. 05, 2013 Rise Set
Actual Time 6:23 AM AST 7:00 PM AST
Civil Twilight 6:00 AM AST 7:22 PM AST
Nautical Twilight 5:34 AM AST 7:48 PM AST
Astronomical Twilight 5:08 AM AST 8:14 PM AST
Moon 5:13 AM AST (8/5) 6:04 PM AST (8/5)
Length of Visible Light 13h 21m
Length of Day
12h 36m
Waning Crescent, 1% of the Moon is Illuminated
Aug 5
Waning Crescent
Aug 6
New
Aug 14
First Quarter
Aug 20
Full
Aug 28
Last Quarter

Hourly Weather History & Observations

Time (AST) Temp. Heat Index Dew Point Humidity Pressure Visibility Wind Dir Wind Speed Gust Speed Precip Events Conditions
12:00 AM 82.4 °F 90.9 °F 77.0 °F 84% 29.95 in 6.2 mi East 8.1 mph - N/A   Partly Cloudy
1:00 AM 82.4 °F 90.9 °F 77.0 °F 84% 29.95 in 6.2 mi East 8.1 mph - N/A   Partly Cloudy
2:00 AM 82 °F - 78 °F 83% 29.94 in 9 mi ESE 6.9 mph - -   Haze
2:00 AM 82.4 °F 90.9 °F 77.0 °F 84% 29.92 in 6.2 mi East 8.1 mph - N/A   Partly Cloudy
3:00 AM 80.6 °F 87.1 °F 77.0 °F 89% 29.92 in 6.2 mi East 6.9 mph - N/A   Partly Cloudy
4:00 AM 80.6 °F 87.1 °F 77.0 °F 89% 29.92 in 6.2 mi ESE 6.9 mph - N/A   Scattered Clouds
5:00 AM 80.6 °F 87.1 °F 77.0 °F 89% 29.92 in 6.2 mi ESE 5.8 mph - N/A   Scattered Clouds
6:00 AM 80.6 °F 87.1 °F 77.0 °F 89% 29.92 in 6.2 mi ESE 5.8 mph - N/A   Scattered Clouds
7:00 AM 80.6 °F 87.1 °F 77.0 °F 89% 29.95 in 6.2 mi ESE 4.6 mph - N/A   Partly Cloudy
8:00 AM 83 °F - 77 °F 76% 29.98 in 11 mi ESE 9.2 mph - -   Haze
8:00 AM 84.2 °F 94.1 °F 77.0 °F 79% 29.98 in 6.2 mi East 9.2 mph - N/A   Partly Cloudy
9:00 AM 86.0 °F 96.9 °F 77.0 °F 74% 29.98 in 6.2 mi East 9.2 mph - N/A   Partly Cloudy
10:00 AM 86.0 °F 96.9 °F 77.0 °F 74% 29.98 in 6.2 mi East 10.4 mph - N/A   Scattered Clouds
11:00 AM 87 °F - 77 °F 65% 29.99 in 11 mi East 12.7 mph - -   Haze
11:00 AM - - - N/A% - - North - - N/A   Unknown
12:00 PM 89.6 °F 102.2 °F 77.0 °F 66% 29.98 in 6.2 mi East 11.5 mph - N/A   Scattered Clouds
1:00 PM 89.6 °F 99.8 °F 75.2 °F 62% 29.95 in 6.2 mi East 11.5 mph - N/A   Partly Cloudy
2:00 PM 89 °F - 75 °F 56% 29.93 in 11 mi ESE 13.8 mph - -   Haze
2:00 PM 89.6 °F 99.8 °F 75.2 °F 62% 29.92 in 6.2 mi East 12.7 mph - N/A   Partly Cloudy
3:00 PM 89.6 °F 99.8 °F 75.2 °F 62% 29.89 in 6.2 mi East 11.5 mph - N/A   Partly Cloudy
4:00 PM 87.8 °F 97.6 °F 75.2 °F 66% 29.86 in 6.2 mi East 11.5 mph - N/A   Partly Cloudy
5:00 PM 87.8 °F 97.6 °F 75.2 °F 66% 29.86 in 6.2 mi East 10.4 mph - N/A   Partly Cloudy
6:00 PM 86.0 °F 95.1 °F 75.2 °F 70% 29.86 in 6.2 mi East 11.5 mph - N/A   Partly Cloudy
7:00 PM 84.2 °F 92.3 °F 75.2 °F 74% 29.86 in 6.2 mi East 8.1 mph - N/A   Partly Cloudy
8:00 PM 83 °F - 76 °F 74% 29.89 in 11 mi East 10.4 mph - -   Haze
8:00 PM 82.4 °F 90.9 °F 77.0 °F 84% 29.89 in 6.2 mi East 11.5 mph - N/A   Partly Cloudy
9:00 PM 82.4 °F 89.5 °F 75.2 °F 79% 29.89 in 6.2 mi East 10.4 mph - N/A   Partly Cloudy
10:00 PM 82.4 °F 90.9 °F 77.0 °F 84% 29.92 in 6.2 mi East 10.4 mph - N/A   Partly Cloudy
11:00 PM 82.4 °F 90.9 °F 77.0 °F 84% 29.92 in 6.2 mi East 9.2 mph - N/A   Partly Cloudy